TimeCDT,TemperatureF,Dew PointF,Humidity,Sea Level PressureIn,VisibilityMPH,Wind Direction,Wind SpeedMPH,Gust SpeedMPH,PrecipitationIn,Events,Conditions,WindDirDegrees,DateUTC
12:53 AM,48.9,46.0,90,30.34,10.0,Calm,Calm,-,0.01,Rain,Light Rain,0,2013-04-27 05:53:00
1:53 AM,50.0,45.0,83,30.33,8.0,Calm,Calm,-,0.00,Rain,Light Rain,0,2013-04-27 06:53:00
2:53 AM,48.9,46.9,93,30.34,5.0,Calm,Calm,-,0.05,Rain,Light Rain,0,2013-04-27 07:53:00
3:53 AM,48.9,46.9,93,30.30,6.0,Calm,Calm,-,0.06,Rain,Light Rain,0,2013-04-27 08:53:00
4:53 AM,48.9,46.9,93,30.25,6.0,SE,3.5,-,0.09,Rain,Light Rain,130,2013-04-27 09:53:00
5:53 AM,50.0,46.9,89,30.25,10.0,East,4.6,-,0.00,,Overcast,90,2013-04-27 10:53:00
6:53 AM,50.0,48.0,93,30.27,8.0,East,5.8,-,0.01,,Overcast,80,2013-04-27 11:53:00
7:06 AM,50.0,48.2,94,30.30,9.0,ENE,5.8,-,N/A,,Overcast,70,2013-04-27 12:06:00
7:34 AM,50.0,48.2,94,30.28,2.0,East,6.9,-,0.05,Rain,Rain,80,2013-04-27 12:34:00
7:53 AM,50.0,48.0,93,30.27,3.0,East,6.9,-,0.10,Rain,Light Rain,100,2013-04-27 12:53:00
8:08 AM,50.0,48.2,94,30.29,4.0,Variable,5.8,-,0.01,Rain,Light Rain,0,2013-04-27 13:08:00
8:13 AM,50.0,48.2,94,30.29,2.5,Variable,3.5,-,0.02,Rain,Rain,0,2013-04-27 13:13:00
8:51 AM,50.0,48.2,94,30.29,3.0,ESE,3.5,-,0.10,Rain,Light Rain,120,2013-04-27 13:51:00
8:52 AM,50.0,48.9,96,30.28,2.5,Variable,3.5,-,0.10,Rain,Light Rain,0,2013-04-27 13:52:00
9:10 AM,50.0,48.2,94,30.30,1.8,SSE,4.6,-,0.07,Rain,Rain,150,2013-04-27 14:10:00
9:19 AM,50.0,48.2,94,30.30,2.0,SSE,5.8,-,0.10,Rain,Rain,160,2013-04-27 14:19:00
9:53 AM,50.0,48.9,96,30.28,3.0,SE,8.1,-,0.20,Rain,Light Rain,140,2013-04-27 14:53:00
10:48 AM,51.8,48.2,88,30.31,2.5,SSE,8.1,-,0.12,Rain,Rain,160,2013-04-27 15:48:00
10:53 AM,51.1,48.9,92,30.31,2.5,South,8.1,-,0.13,Rain,Rain,170,2013-04-27 15:53:00
11:07 AM,51.8,48.2,88,30.31,3.0,SSE,9.2,-,0.03,Rain,Rain,160,2013-04-27 16:07:00
11:29 AM,51.8,48.2,88,30.31,2.0,SSE,5.8,-,0.10,Rain,Rain,160,2013-04-27 16:29:00
11:51 AM,51.8,50.0,94,30.31,1.2,South,4.6,-,0.22,Rain,Heavy Rain,170,2013-04-27 16:51:00
11:53 AM,51.1,48.9,92,30.30,1.2,SSE,5.8,-,0.24,Rain,Heavy Rain,150,2013-04-27 16:53:00
12:11 PM,51.8,48.2,88,30.26,3.0,Variable,5.8,-,0.07,Rain,Light Rain,0,2013-04-27 17:11:00
12:37 PM,51.8,48.2,88,30.27,6.0,SE,6.9,-,0.09,Rain,Light Rain,140,2013-04-27 17:37:00
12:53 PM,52.0,50.0,93,30.28,2.0,SE,5.8,-,0.15,Rain,Rain,130,2013-04-27 17:53:00
1:09 PM,51.8,48.2,88,30.29,1.8,Variable,3.5,-,0.07,Rain,Rain,0,2013-04-27 18:09:00
1:30 PM,51.8,48.2,88,30.25,3.0,SE,9.2,16.1,0.18,Rain,Light Rain,130,2013-04-27 18:30:00
1:40 PM,51.8,48.2,88,30.25,7.0,SE,8.1,-,0.18,Rain,Light Rain,130,2013-04-27 18:40:00
1:53 PM,51.1,48.9,92,30.23,4.0,SE,5.8,18.4,0.20,Rain,Light Rain,130,2013-04-27 18:53:00
2:16 PM,51.8,48.2,88,30.23,4.0,SE,6.9,18.4,0.01,Rain,Light Rain,140,2013-04-27 19:16:00
2:53 PM,51.1,48.9,92,30.22,5.0,SE,6.9,-,0.02,Rain,Light Rain,140,2013-04-27 19:53:00
3:41 PM,50.0,48.2,94,30.19,2.0,SSE,5.8,-,0.08,Rain,Rain,150,2013-04-27 20:41:00
3:53 PM,50.0,48.9,96,30.19,2.5,SE,4.6,-,0.11,Rain,Rain,140,2013-04-27 20:53:00
4:04 PM,50.0,48.2,94,30.19,1.5,SSE,6.9,-,0.05,Rain,Rain,150,2013-04-27 21:04:00
4:19 PM,50.0,48.2,94,30.17,3.0,SSE,4.6,-,0.12,Rain,Rain,150,2013-04-27 21:19:00
4:53 PM,51.1,48.9,92,30.17,7.0,Calm,Calm,-,0.14,Rain,Light Rain,0,2013-04-27 21:53:00
5:25 PM,51.8,48.2,88,30.18,2.0,South,4.6,-,0.02,Rain,Light Rain,170,2013-04-27 22:25:00
5:33 PM,51.8,48.2,88,30.17,1.5,SSE,3.5,-,0.06,Rain,Heavy Rain,150,2013-04-27 22:33:00
5:44 PM,51.8,48.2,88,30.16,2.0,Variable,4.6,-,0.07,Rain,Light Rain,0,2013-04-27 22:44:00
5:53 PM,51.1,48.9,92,30.15,3.0,SSE,4.6,-,0.08,Rain,Light Rain,150,2013-04-27 22:53:00
6:08 PM,51.8,48.2,88,30.15,5.0,ESE,3.5,-,0.01,,Overcast,120,2013-04-27 23:08:00
6:53 PM,51.1,48.9,92,30.11,7.0,SE,4.6,-,0.02,,Overcast,140,2013-04-27 23:53:00
7:53 PM,52.0,48.9,89,30.10,10.0,ESE,3.5,-,N/A,,Overcast,120,2013-04-28 00:53:00
8:53 PM,52.0,48.0,86,30.09,10.0,SSE,4.6,-,N/A,,Overcast,150,2013-04-28 01:53:00
9:53 PM,52.0,48.0,86,30.08,10.0,SE,5.8,-,N/A,,Mostly Cloudy,140,2013-04-28 02:53:00
10:53 PM,53.1,48.0,83,30.07,10.0,SSE,8.1,-,N/A,,Mostly Cloudy,150,2013-04-28 03:53:00
11:53 PM,54.0,48.9,83,30.03,10.0,South,9.2,18.4,N/A,,Overcast,170,2013-04-28 04:53:00